Change the Weather History Date:

Monday, March 25, 2013

  Actual Average Record
Temperature  
Mean Temperature 21 °F 38 °F  
Max Temperature 40 °F 52 °F 78 °F (2012)
Min Temperature 2 °F 25 °F 2 °F (2013)
Degree Days  
Heating Degree Days 44 27  
Month to date heating degree days 767 762  
Since 1 July heating degree days 5798 6162  
Cooling Degree Days 0 0  
Month to date cooling degree days 0 0  
Year to date cooling degree days 0 0  
Moisture  
Dew Point 5 °F    
Average Humidity 54    
Maximum Humidity 88    
Minimum Humidity 19    
Precipitation  
Precipitation T in 0.04 in 0.14 in (2004)
Month to date precipitation 0.09 0.65  
Year to date precipitation 0.58 1.44  
Sea Level Pressure  
Sea Level Pressure 30.32 in    
Wind  
Wind Speed 7 mph (NW)    
Max Wind Speed 18 mph    
Max Gust Speed 24 mph    
Visibility 9 miles    
Events Snow    
T = Trace of Precipitation, MM = Missing Value Source: NWS Daily Summary

Daily Weather History Graph

Daily Weather History Graph

Search for Another Location

Airport or City:

Trip Planner

Search our weather history database for the weather conditions in past years. The results will help you decide how hot, cold, wet, or windy it might be!

Date:

Astronomy

Mar. 25, 2013 Rise Set
Actual Time 6:55 AM MDT 7:19 PM MDT
Civil Twilight 6:27 AM MDT 7:48 PM MDT
Nautical Twilight 5:53 AM MDT 8:21 PM MDT
Astronomical Twilight 5:19 AM MDT 8:56 PM MDT
Moon 5:53 PM MDT (3/25) 5:42 AM MDT (3/25)
Length of Visible Light 13h 21m
Length of Day
12h 24m
Waxing Gibbous, 97% of the Moon is Illuminated
Mar 25
Waxing Gibbous
Mar 27
Full
Apr 2
Last Quarter
Apr 10
New
Apr 18
First Quarter

Hourly Weather History & Observations

Time (MDT) Temp. Windchill Dew Point Humidity Pressure Visibility Wind Dir Wind Speed Gust Speed Precip Events Conditions
12:53 AM 12.0 °F 2.7 °F 8.1 °F 84% 30.40 in 10.0 mi North 5.8 mph - 0.00 in   Overcast
1:06 AM 10.4 °F 0.8 °F 6.8 °F 85% 30.21 in 5.0 mi North 5.8 mph - N/A   Overcast
1:53 AM 10.9 °F - 7.0 °F 84% 30.41 in 2.5 mi Calm Calm - 0.00 in Snow Light Snow
2:01 AM 10.4 °F 4.0 °F 6.8 °F 85% 30.22 in 3.0 mi NNW 3.5 mph - 0.00 in Snow Light Snow
2:30 AM 12.2 °F - 8.6 °F 85% 30.21 in 2.5 mi Calm Calm - 0.00 in Snow Light Snow
2:33 AM 10.4 °F - 8.6 °F 92% 30.21 in 3.0 mi Calm Calm - 0.00 in Snow Light Snow
2:53 AM 10.9 °F - 7.0 °F 84% 30.39 in 10.0 mi Calm Calm - 0.00 in   Overcast
3:53 AM 8.1 °F -0.5 °F 3.9 °F 83% 30.40 in 10.0 mi North 4.6 mph - N/A   Clear
4:53 AM 6.1 °F - 1.9 °F 83% 30.43 in 10.0 mi Calm Calm - N/A   Clear
5:53 AM 3.9 °F - -0.0 °F 84% 30.43 in 10.0 mi Calm Calm - N/A   Clear
6:53 AM 3.0 °F - -0.9 °F 84% 30.45 in 10.0 mi Calm Calm - N/A   Clear
7:53 AM 7.0 °F - 3.9 °F 87% 30.45 in 10.0 mi Calm Calm - N/A   Clear
8:53 AM 14.0 °F 6.5 °F 9.0 °F 80% 30.43 in 10.0 mi NW 4.6 mph - N/A   Clear
9:53 AM 21.9 °F 9.8 °F 14.0 °F 72% 30.40 in 10.0 mi WNW 12.7 mph - N/A   Clear
10:53 AM 28.0 °F 17.0 °F 12.0 °F 51% 30.37 in 10.0 mi WNW 13.8 mph - N/A   Clear
11:53 AM 30.9 °F 21.2 °F 7.0 °F 37% 30.34 in 10.0 mi West 12.7 mph 18.4 mph N/A   Clear
12:53 PM 34.0 °F 25.0 °F 6.1 °F 31% 30.33 in 10.0 mi NNW 12.7 mph 19.6 mph N/A   Clear
1:53 PM 37.0 °F 28.1 °F 3.0 °F 24% 30.30 in 10.0 mi WNW 15.0 mph 20.7 mph N/A   Clear
2:53 PM 37.9 °F 30.5 °F 7.0 °F 28% 30.27 in 10.0 mi NW 11.5 mph 20.7 mph N/A   Clear
3:53 PM 39.0 °F 31.0 °F -0.0 °F 19% 30.27 in 10.0 mi WNW 13.8 mph - N/A   Clear
4:53 PM 39.0 °F 31.8 °F 1.0 °F 20% 30.27 in 10.0 mi WNW 11.5 mph - N/A   Clear
5:53 PM 39.0 °F 32.3 °F 3.9 °F 23% 30.26 in 10.0 mi WNW 10.4 mph - N/A   Clear
6:53 PM 37.0 °F - 1.9 °F 23% 30.28 in 10.0 mi Calm Calm - N/A   Clear
7:53 PM 26.1 °F 21.9 °F 1.9 °F 35% 30.30 in 10.0 mi East 3.5 mph - N/A   Clear
8:53 PM 21.9 °F 11.7 °F 5.0 °F 48% 30.30 in 10.0 mi ESE 9.2 mph - N/A   Clear
9:53 PM 21.0 °F 10.6 °F 5.0 °F 50% 30.26 in 10.0 mi SE 9.2 mph - N/A   Clear
10:53 PM 24.1 °F 17.0 °F 5.0 °F 44% 30.22 in 10.0 mi SE 5.8 mph - N/A   Clear
11:53 PM 23.0 °F 12.4 °F 5.0 °F 46% 30.19 in 10.0 mi SE 10.4 mph - N/A   Clear